Location: Be Tobo
(6.6442°N, 10.6239°W)
Time: 01:31:56
(UTC+00:00)

Cosmos 2034 Rocket - Pass Details

Date: 18 September 2020
Orbit: 957 x 1002 km, 82.9° (Epoch: 21 October)

Event Time Altitude Azimuth Distance (km) Brightness Sun altitude
Rises 20:26:39 0° 191° (S) 3,707 7.1 -27.2°
Reaches altitude 10° 20:29:12 10° 194° (SSW) 2,761 6.4 -27.8°
Maximum altitude 20:35:27 62° 273° (W) 1,115 4.4 -29.4°
Drops below altitude 10° 20:41:43 10° 353° (N) 2,763 6.5 -30.9°
Sets 20:44:17 0° 357° (N) 3,710 7.1 -31.5°
